{"data":{"norad_id":56052,"epoch":"2026-09-20T03:39:01.334592Z","epoch_age_seconds":48369,"freshness":"FRESH","line1":"1 56052U 23043G   26263.15209878  .00000089  00000+0  18456-3 0  9992","line2":"2 56052  87.9282 225.0757 0002272  78.7411 281.3978 13.21826096170773","mean_motion":13.21826096,"eccentricity":0.0002272,"inclination_deg":87.9282,"raan_deg":225.0757,"arg_perigee_deg":78.7411,"mean_anomaly_deg":281.3978,"bstar":0.00018456,"rev_number":17077,"period_min":108.94020055721,"perigee_km":1176.0363043192,"apogee_km":1179.4697007363,"semimajor_km":7555.8900025278,"source":"CELESTRAK","updated_at":"2026-09-20T09:00:44.787634Z"}}